MIDVIL-WX Weather Reports


time (UTC)temp
C
wind
direction
speed
KPH
gust
KPH
rain 1hr
cm
rain 24hr
cm
rain mn
cm
humidity
%
barometer
mb
20260505170054 12 278 20.9 0.0 0.00 0.00 0.00 35 980.7
20260505164528 11 286 20.9 0.0 0.00 0.00 0.00 41 981.6
20260505163047 11 283 20.9 0.0 0.00 0.00 0.00 43 979.8
20260505161528 11 270 19.3 0.0 0.00 0.00 0.00 43 979.8
20260505153049 10 272 20.9 0.0 0.00 0.00 0.00 43 980.6
20260505151528 10 279 20.9 0.0 0.00 0.00 0.00 43 980.5
20260505124527 11 306 14.5 0.0 0.00 0.00 0.00 72 979.7
20260505123047 10 310 12.9 0.0 0.00 0.00 0.00 71 978.0
20260505121527 10 312 12.9 0.0 0.00 0.00 0.00 71 978.0
20260505120104 9 290 12.9 0.0 0.00 0.00 0.00 71 978.0
20260505114527 9 282 14.5 0.0 0.00 0.00 0.00 72 978.1
20260505113045 9 288 14.5 0.0 0.00 0.00 0.00 67 976.6
20260505111527 10 285 9.7 0.0 0.00 0.00 0.00 67 976.6
20260505101527 10 254 11.3 0.0 0.00 0.00 0.00 58 975.0
20260505100058 10 257 11.3 0.0 0.00 0.00 0.00 58 975.0
20260505094527 10 257 11.3 0.0 0.00 0.00 0.00 64 975.3
20260505093049 11 262 9.7 0.0 0.00 0.00 0.00 67 975.0
20260505091527 10 244 12.9 0.0 0.00 0.00 0.00 67 975.0
20260505084525 11 261 9.7 0.0 0.00 0.00 0.00 75 975.4
20260505083046 11 255 9.7 0.0 0.00 0.00 0.00 80 974.7
20260505081527 11 249 11.3 0.0 0.00 0.00 0.00 80 974.7
20260505080055 11 249 12.9 0.0 0.00 0.00 0.00 66 974.9
20260505074527 12 253 16.1 0.0 0.00 0.00 0.00 79 974.1
20260505073048 12 245 12.9 0.0 0.00 0.00 0.00 79 974.1
20260505071527 12 234 16.1 0.0 0.00 0.00 0.00 79 974.2
20260505070057 13 226 16.1 0.0 0.00 0.00 0.00 79 974.2
20260505064527 13 239 14.5 0.0 0.00 0.00 0.00 80 974.5
20260505063044 13 234 16.1 0.0 0.00 0.00 0.00 76 973.9
20260505061528 13 241 16.1 0.0 0.00 0.00 0.00 76 973.9
20260505054528 14 234 17.7 0.0 0.00 0.00 0.00 76 975.2
20260505053050 14 225 14.5 0.0 0.00 0.00 0.00 68 973.7
20260505051527 15 236 14.5 0.0 0.00 0.00 0.00 68 973.7
20260505041527 16 232 8.0 0.0 0.00 0.00 0.00 65 973.7
20260505040058 16 231 14.5 0.0 0.00 0.00 0.00 65 973.7
20260505034524 16 225 17.7 0.0 0.00 0.00 0.00 63 973.5
20260505033047 16 211 19.3 0.0 0.00 0.00 0.00 65 973.5
20260505031527 16 202 22.5 0.0 0.00 0.00 0.00 65 973.5
20260505030056 16 207 24.1 0.0 0.00 0.00 0.00 65 973.5
20260505024527 16 205 24.1 0.0 0.00 0.00 0.00 56 973.8
20260505023048 17 207 27.4 0.0 0.00 0.00 0.00 60 973.9
20260505021527 17 214 25.7 0.0 0.00 0.00 0.00 60 973.8
20260505020056 17 209 27.4 0.0 0.00 0.00 0.00 60 973.8
20260505014527 17 207 30.6 0.0 0.00 0.00 0.00 63 972.9
20260505013045 17 207 29.0 0.0 0.00 0.00 0.00 63 972.9
20260505011527 17 206 30.6 0.0 0.00 0.00 0.00 63 972.9
20260505010052 17 205 25.7 0.0 0.00 0.00 0.00 63 972.9
20260505004527 18 214 22.5 0.0 0.00 0.00 0.00 43 973.4
20260505003044 19 197 14.5 0.0 0.00 0.00 0.00 45 974.1
20260505001526 19 190 11.3 0.0 0.00 0.00 0.00 45 974.1
20260505000056 20 202 9.7 0.0 0.00 0.00 0.00 45 974.1
20260504234526 20 219 11.3 0.0 0.00 0.00 0.00 34 974.1
20260504233044 21 237 14.5 0.0 0.00 0.00 0.00 34 973.9
20260504231526 21 243 16.1 0.0 0.00 0.00 0.00 34 973.9
20260504230052 21 248 19.3 0.0 0.00 0.00 0.00 34 973.9
20260504224526 22 248 24.1 0.0 0.00 0.00 0.00 37 973.7
20260504223047 22 254 25.7 0.0 0.00 0.00 0.00 38 974.1
20260504221526 22 247 27.4 0.0 0.00 0.00 0.00 38 974.1
20260504220059 22 243 29.0 0.0 0.00 0.00 0.00 38 974.1
20260504214525 22 241 27.4 0.0 0.00 0.00 0.00 34 975.1
20260504213047 22 243 27.4 0.0 0.00 0.00 0.00 34 975.1
20260504211525 22 239 30.6 0.0 0.00 0.00 0.00 35 974.1
20260504210056 22 241 30.6 0.0 0.00 0.00 0.00 35 974.1
20260504204530 22 236 33.8 0.0 0.00 0.00 0.00 36 974.8
20260504203041 22 237 32.2 0.0 0.00 0.00 0.00 36 974.8
20260504201532 22 234 29.0 0.0 0.00 0.00 0.00 36 974.8
20260504200053 22 237 33.8 0.0 0.00 0.00 0.00 41 974.0
20260504194531 23 231 30.6 0.0 0.00 0.00 0.00 37 975.0
20260504193050 23 227 30.6 0.0 0.00 0.00 0.00 37 975.0
20260504191532 22 230 32.2 0.0 0.00 0.00 0.00 37 975.0
20260504190057 22 225 32.2 0.0 0.00 0.00 0.00 37 975.0
20260504184527 22 220 32.2 0.0 0.00 0.00 0.00 26 976.0
20260504183052 22 225 27.4 0.0 0.00 0.00 0.00 30 975.7
20260504181532 22 228 27.4 0.0 0.00 0.00 0.00 30 975.7
20260504180101 22 230 25.7 0.0 0.00 0.00 0.00 30 975.7
20260504174531 22 232 27.4 0.0 0.00 0.00 0.00 39 976.6
20260504173046 21 232 27.4 0.0 0.00 0.00 0.00 36 976.4
20260504171530 21 230 27.4 0.0 0.00 0.00 0.00 36 976.4